sat.trackr.live / text

‹ back to catalog

STARLINK-37020

NORAD 68144 · 2026-049C

PAYLOAD ACTIVE UNKNOWN

§ Identity

Operator
Country
US
Launch date
2026-03-13
Launch site
AFWTR
Launch vehicle
Mass (kg)
RCS (m²)

Purposes: comms

External: N2YO · Heavens-Above · Gunter

§ Orbital elements

Epoch: 2026-09-19T18:51:28.416384Z

Period
93.91 min
Inclination
97.2848°
Eccentricity
0.0001129
Mean motion
15.33434507 rev/d
Perigee alt
464.8 km
Apogee alt
466.3 km
Semi-major
6,843.7 km
B*
7.0341e-4
RAAN
282.7848°
Arg perigee
99.7120°
Mean anomaly
260.4250°
Rev number
2,939

§ Raw data

STARLINK-370201 68144U 26049C   26262.78574556  .00022695  00000+0  70341-3 0  99902 68144  97.2848 282.7848 0001129  99.7120 260.4250 15.33434507 29390

JSON: /api/v1/satellites/68144 · /tle

For live sub-satellite position, see the globe view (requires WebGL).

§ Visibility from observer

Set your observer location to see the next 7 days of passes ≥ 10°. The values pass through the URL so the page stays shareable.

No JS? Fill the form by hand. The geolocation button needs JavaScript.